This demonstration page uses our WeatherBlox Daily Observations layout. Learn more.

Left ArrowRight Arrow

Hourly Observations for December 15, 2018

Temp ( °F °C ) Dew Point ( °F °C ) Humidity (%) Winds ( mph kmh ) Pressure ( in mb ) Visibility ( mi km ) Precip ( " mm )
12:15 am 00:15 Cloudy with Drizzle 41 5 41 5 100 100 NNE 8 13 30.21 1023 2 3 0.01 0.25
12:35 am 00:35 Cloudy with Drizzle 41 5 41 5 100 100 NNE 12 19 30.21 1023 2 3 0.01 0.25
12:55 am 00:55 Cloudy with Light Rain 41 5 41 5 100 100 NNE 9 15 30.18 1022 2 3 0.02 0.51
1:15 am 01:15 Cloudy with Mist and Fog 41 5 41 5 100 100 NNE 10 17 30.18 1022 3 4 N/A
1:35 am 01:35 Cloudy with Light Rain 41 5 41 5 100 100 NNE 12 19 30.18 1022 3 5 N/A
1:55 am 01:55 Cloudy with Light Rain 41 5 41 5 100 100 NNE 12 19 30.18 1022 2 3 0.01 0.25
2:15 am 02:15 Cloudy with Drizzle 41 5 41 5 100 100 NNE 10 17 30.18 1022 3 5 0.01 0.25
2:35 am 02:35 Cloudy with Drizzle 41 5 41 5 100 100 NE 9 15 30.18 1022 3 4 0.01 0.25
2:55 am 02:55 Cloudy with Drizzle 41 5 41 5 100 100 NE 7 11 30.18 1022 3 4 0.03 0.76
3:15 am 03:15 Cloudy with Drizzle 41 5 41 5 100 100 NNE 7 11 30.15 1021 3 4 0.01 0.25
3:35 am 03:35 Cloudy with Rain 41 5 41 5 100 100 NNE 8 13 30.15 1021 2 3 0.03 0.76
3:55 am 03:55 Cloudy with Light Rain 41 5 41 5 100 100 NNE 10 17 30.12 1020 3 4 0.06 1.52
4:15 am 04:15 Cloudy with Drizzle 41 5 41 5 100 100 NNE 10 17 30.12 1020 3 5 0.02 0.51
4:35 am 04:35 Cloudy with Heavy Rain 41 5 41 5 100 100 NNE 10 17 30.12 1020 3 4 0.05 1.27
4:55 am 04:55 Cloudy with Drizzle 41 5 41 5 100 100 NNE 8 13 30.12 1020 3 4 0.08 2.03
5:15 am 05:15 Cloudy with Rain 41 5 41 5 100 100 NNE 8 13 30.12 1020 3 4 0.02 0.51
5:35 am 05:35 Cloudy with Light Rain 41 5 41 5 100 100 NNE 7 11 30.12 1020 3 4 0.05 1.27
5:55 am 05:55 Cloudy with Rain 41 5 41 5 100 100 NNE 13 20 30.09 1019 3 4 0.07 1.78
6:15 am 06:15 Cloudy with Rain 41 5 41 5 100 100 NNE 9 15 30.09 1019 2 3 0.02 0.51
6:35 am 06:35 Cloudy with Light Rain 41 5 41 5 100 100 NNE 9 15 30.09 1019 3 4 0.04 1.02
6:55 am 06:55 Cloudy with Light Rain 41 5 41 5 100 100 N 12 19 30.09 1019 3 4 0.05 1.27
7:15 am 07:15 Cloudy with Rain 41 5 41 5 100 100 N 13 20 30.09 1019 3 4 0.03 0.76
7:35 am 07:35 Cloudy with Rain 41 5 41 5 100 100 NNE 12 19 30.09 1019 2 3 0.08 2.03
7:55 am 07:55 Cloudy with Rain 41 5 41 5 100 100 NNE 12 19 30.09 1019 3 4 0.13 3.30
8:35 am 08:35 Cloudy with Rain 41 5 41 5 100 100 NNE 12 19 30.09 1019 2 3 0.08 2.03
8:55 am 08:55 Cloudy with Rain 43 6 43 6 100 100 NNE 10 17 30.09 1019 2 3 0.15 3.81
9:15 am 09:15 Cloudy with Heavy Rain 43 6 43 6 100 100 NNE 12 19 30.09 1019 2 3 0.08 2.03
9:35 am 09:35 Cloudy with Heavy Rain 43 6 43 6 100 100 NNE 14 22 30.09 1019 2 3 0.19 4.83
9:55 am 09:55 Cloudy with Heavy Rain 43 6 43 6 100 100 NNE 14 22 30.09 1019 2 3 0.28 7.11
10:15 am 10:15 Cloudy with Heavy Rain 43 6 43 6 100 100 NNE 12 19 30.12 1020 3 4 0.08 2.03
10:35 am 10:35 Cloudy with Heavy Rain 43 6 43 6 100 100 NNE 10 17 30.09 1019 2 3 0.18 4.57
10:55 am 10:55 Cloudy with Heavy Rain 43 6 43 6 100 100 NNE 13 20 30.09 1019 3 5 0.26 6.60
11:15 am 11:15 Cloudy with Rain 43 6 43 6 100 100 NNE 14 22 30.09 1019 4 6 0.04 1.02
11:35 am 11:35 Cloudy with Rain 43 6 43 6 100 100 N 14 22 30.09 1019 3 4 0.13 3.30
11:55 am 11:55 Cloudy with Heavy Rain 45 7 45 7 100 100 NNE 14 22 30.09 1019 5 8 0.18 4.57
12:15 pm 12:15 Cloudy with Rain 45 7 45 7 100 100 NNE 13 20 30.09 1019 4 6 0.04 1.02
12:35 pm 12:35 Cloudy with Rain 45 7 45 7 100 100 NNE 13 20 30.06 1018 4 6 0.08 2.03
12:55 pm 12:55 Cloudy with Rain 45 7 45 7 100 100 NNE 14 22 30.06 1018 4 6 0.10 2.54
1:15 pm 13:15 Cloudy with Rain 45 7 45 7 100 100 NNE 12 19 30.03 1017 4 6 0.01 0.25
1:35 pm 13:35 Cloudy with Light Rain 45 7 45 7 100 100 NNE 14 22 30.00 1016 3 5 0.02 0.51
1:55 pm 13:55 Cloudy with Drizzle 46 8 46 8 100 100 NNE 10 17 30.00 1016 3 5 0.03 0.76
2:15 pm 14:15 Cloudy with Drizzle 46 8 46 8 100 100 NNE 10 17 30.00 1016 3 4 0.02 0.51
2:35 pm 14:35 Cloudy with Rain 46 8 46 8 100 100 NNE 9 15 30.00 1016 2 3 0.08 2.03
2:55 pm 14:55 Cloudy with Rain 46 8 46 8 100 100 NNE 9 15 30.00 1016 3 4 0.14 3.56
3:15 pm 15:15 Cloudy with Heavy Rain 46 8 46 8 100 100 NNE 10 17 30.00 1016 2 3 0.04 1.02
3:35 pm 15:35 Cloudy with Rain 46 8 46 8 100 100 NNE 10 17 30.00 1016 2 3 0.11 2.79
3:55 pm 15:55 Cloudy with Light Rain 48 9 48 9 100 100 NNE 10 17 30.00 1016 3 5 0.13 3.30
4:15 pm 16:15 Cloudy with Rain 48 9 48 9 100 100 NNE 9 15 30.03 1017 3 4 0.02 0.51
4:35 pm 16:35 Cloudy with Light Rain 48 9 48 9 100 100 NNE 8 13 30.03 1017 3 5 0.04 1.02
4:55 pm 16:55 Cloudy with Light Rain 48 9 48 9 100 100 NNE 6 9 30.00 1016 4 6 0.04 1.02
5:15 pm 17:15 Cloudy with Drizzle 48 9 48 9 100 100 NNE 9 15 30.03 1017 4 6 N/A
5:35 pm 17:35 Cloudy with Light Rain 48 9 48 9 100 100 N 9 15 30.03 1017 3 5 N/A
5:55 pm 17:55 Cloudy with Drizzle 48 9 48 9 100 100 NNE 8 13 30.03 1017 3 5 N/A
6:15 pm 18:15 Cloudy with Rain 48 9 48 9 100 100 NNE 8 13 30.03 1017 3 4 0.02 0.51
6:35 pm 18:35 Cloudy with Light Rain 48 9 48 9 100 100 NNE 6 9 30.03 1017 3 4 0.04 1.02
6:55 pm 18:55 Cloudy with Rain 48 9 48 9 100 100 NNE 7 11 30.00 1016 2 3 0.08 2.03
7:15 pm 19:15 Cloudy with Rain 48 9 48 9 100 100 NNE 9 15 30.00 1016 2 3 0.04 1.02
7:35 pm 19:35 Cloudy with Rain 46 8 46 8 100 100 NNE 9 15 30.00 1016 3 4 0.09 2.29
7:55 pm 19:55 Cloudy with Rain 46 8 46 8 100 100 NNE 9 15 30.00 1016 3 4 0.15 3.81
8:15 pm 20:15 Cloudy with Rain 46 8 46 8 100 100 NE 6 9 30.00 1016 3 4 0.03 0.76
8:35 pm 20:35 Cloudy with Rain 46 8 46 8 100 100 NNE 7 11 30.00 1016 2 3 0.10 2.54
8:55 pm 20:55 Cloudy with Rain 46 8 46 8 100 100 NNE 6 9 30.00 1016 3 4 0.15 3.81
9:15 pm 21:15 Cloudy with Heavy Rain 46 8 46 8 100 100 N 8 13 30.00 1016 3 5 0.05 1.27
9:35 pm 21:35 Cloudy with Heavy Rain 46 8 46 8 100 100 N 9 15 30.00 1016 3 5 0.16 4.06
9:55 pm 21:55 Cloudy with Heavy Rain 46 8 46 8 100 100 N 9 15 30.00 1016 3 5 0.27 6.86
10:15 pm 22:15 Cloudy with Heavy Rain 46 8 46 8 100 100 NNE 8 13 29.97 1015 3 5 0.08 2.03
10:35 pm 22:35 Cloudy with Heavy Rain 46 8 46 8 100 100 NNE 5 7 29.97 1015 3 5 0.17 4.32
10:55 pm 22:55 Cloudy with Heavy Rain 46 8 46 8 100 100 NNE 8 13 29.97 1015 2 3 0.31 7.87
11:15 pm 23:15 Cloudy with Heavy Rain 46 8 46 8 100 100 NNE 12 19 29.97 1015 3 5 0.09 2.29
11:35 pm 23:35 Cloudy with Rain 45 7 45 7 100 100 NE 10 17 29.97 1015 5 8 0.13 3.30
11:55 pm 23:55 Cloudy with Rain 45 7 45 7 100 100 NE 10 17 29.97 1015 7 11 0.14 3.56

Powered by AerisWeather